Lapse_Rate
5.0 5.1 5.3 5.6 5.7 5.4 5.4 5.6 5.7 5.8 6.0 6.0 6.0 6.0 6.0 6.1 6.0 6.0 6.1 6.1 6.1 6.1 6.1 6.0 6.2 6.3 6.3 6.2 6.3 6.1 6.1 6.1 6.0 6.1 6.1 6.0 6.1 6.1 6.0 5.8 5.8 5.8 5.7
5.1 5.2 5.6 5.3 5.3 5.4 5.6 5.7 5.8 5.9 6.0 6.0 6.0 6.0 5.9 5.9 6.0 6.0 6.0 6.2 6.2 6.3 6.1 6.2 6.2 6.2 6.2 6.3 6.3 6.2 6.2 6.1 6.1 6.1 6.2 6.2 6.0 6.1 6.1 5.8 5.8 5.7 5.8
5.2 5.4 5.5 5.2 5.3 5.5 5.6 5.7 5.9 6.0 5.9 6.0 6.1 6.0 6.1 6.1 6.2 6.3 6.2 6.5 6.3 6.3 6.3 6.2 6.3 6.2 6.2 6.3 6.3 6.2 6.3 6.2 6.1 6.0 6.1 6.1 6.0 6.0 6.1 6.3 6.1 6.0 6.0
5.3 5.4 5.4 5.3 5.3 5.6 5.7 5.8 5.9 6.0 6.1 6.1 6.2 6.3 6.5 6.4 6.4 6.4 6.4 6.5 6.3 6.4 6.4 6.2 6.2 6.2 6.2 6.3 6.2 6.1 6.1 6.2 6.0 6.1 6.1 5.7 6.2 6.2 6.3 6.3 6.3 6.2 6.2
5.0 5.4 5.5 5.4 5.4 5.6 5.8 5.9 6.1 6.2 6.3 6.4 6.5 6.5 6.6 6.6 6.6 6.5 6.4 6.4 6.5 6.6 6.4 6.4 6.2 6.2 6.2 6.2 6.1 6.3 6.3 6.2 6.2 6.3 6.0 5.8 6.2 6.3 6.3 6.4 6.4 6.2 6.2
4.8 5.5 5.7 5.7 5.5 5.7 6.0 6.2 6.3 6.4 6.4 6.3 6.3 6.3 6.4 6.5 6.7 6.6 6.6 6.6 6.6 6.6 6.6 6.4 6.3 6.4 6.5 6.1 6.2 6.1 6.3 6.2 6.1 6.0 5.1 5.8 6.0 6.2 6.3 6.3 6.5 6.5 6.4
4.9 5.6 5.8 5.7 5.6 5.8 6.1 6.2 6.2 6.2 6.2 6.2 6.3 6.4 6.5 6.6 6.5 6.6 6.7 6.8 6.8 6.7 6.8 6.7 6.8 6.9 6.9 6.5 6.3 6.4 6.4 6.2 6.1 5.7 5.3 5.9 6.1 6.1 6.2 6.3 6.4 6.5 6.5
5.4 5.6 5.6 5.6 5.8 6.0 6.2 6.2 6.2 6.3 6.3 6.3 6.3 6.3 6.4 6.5 6.4 6.6 6.6 6.6 6.6 6.6 6.6 6.6 6.7 6.5 6.8 6.5 6.3 6.4 6.3 6.3 6.2 5.3 5.1 6.1 6.0 6.2 6.2 6.2 6.2 6.3 6.4
5.1 5.7 5.7 5.7 5.9 6.1 6.1 6.3 6.3 6.4 6.3 6.3 6.4 6.5 6.5 6.5 6.4 6.6 6.5 6.4 6.5 6.6 6.6 6.7 6.6 6.6 6.6 6.6 6.5 6.3 6.2 6.3 5.9 5.4 5.4 5.5 5.8 6.1 6.3 6.3 6.3 6.3 6.2
5.6 5.7 5.7 5.8 6.0 6.1 6.1 6.3 6.2 6.2 6.1 6.3 6.3 6.4 6.4 6.4 6.3 6.5 6.5 6.6 6.7 6.8 6.9 6.7 6.6 6.5 6.4 6.3 6.3 6.3 6.3 6.3 5.8 5.5 5.4 5.7 5.8 6.0 6.1 6.2 6.3 6.4 6.4
5.4 5.9 6.1 6.1 6.2 6.3 6.3 6.1 6.1 6.2 6.2 6.2 6.2 6.3 6.3 5.7 6.1 6.4 6.5 6.6 6.7 6.8 6.9 6.8 6.5 6.5 6.2 6.1 6.0 6.2 6.1 6.0 5.7 5.7 5.9 5.6 5.5 5.7 5.8 6.0 6.1 6.1 6.4
5.7 6.0 6.1 6.2 6.3 6.3 6.1 6.1 6.2 6.1 6.1 6.2 5.9 6.1 5.5 6.2 6.3 6.4 6.4 6.4 6.4 6.3 6.4 6.4 6.3 6.3 6.0 6.3 6.2 6.3 6.0 6.2 5.4 5.9 5.6 5.4 5.6 5.8 5.9 6.0 6.0 6.1 6.1
5.1 5.2 5.9 6.1 6.2 6.2 5.8 6.1 6.1 6.0 6.0 6.1 6.2 6.3 6.3 6.3 6.3 6.4 6.3 6.0 6.0 5.7 5.9 5.9 5.9 6.2 5.9 5.9 5.8 6.2 6.1 6.0 6.2 5.9 6.0 6.1 5.7 5.9 6.1 6.0 6.0 6.1 6.0
4.8 4.6 5.9 6.1 6.2 6.2 6.1 6.0 5.9 6.0 6.0 6.2 6.2 6.2 6.3 6.4 6.1 6.0 5.6 5.6 5.6 6.0 6.0 5.9 6.0 6.1 5.9 5.9 5.7 5.5 5.5 5.8 6.0 5.8 5.9 6.4 6.4 6.3 6.2 6.2 6.2 6.0 5.9
5.7 5.8 6.0 6.0 6.0 6.1 6.1 6.1 6.1 6.1 6.0 6.0 6.2 6.3 6.1 6.1 6.1 6.1 6.3 5.6 5.1 5.0 5.2 6.1 6.2 6.2 6.2 5.5 5.6 6.2 6.2 5.8 5.5 5.3 5.2 6.0 6.5 6.6 6.4 6.2 6.2 6.3 6.3
5.8 5.9 5.9 5.9 5.9 5.9 6.1 6.1 6.1 6.1 6.1 6.1 6.1 6.2 6.1 6.0 5.8 6.1 6.0 5.1 4.9 5.6 5.9 6.1 6.2 6.2 6.2 6.3 6.4 6.4 6.4 6.4 6.2 5.9 5.7 5.7 6.1 6.2 6.4 6.3 6.2 6.4 6.5
5.7 5.9 6.0 6.0 5.9 5.9 5.9 5.9 6.0 6.1 6.2 6.1 6.1 6.1 5.9 5.9 5.8 6.0 5.3 5.1 5.0 6.0 6.2 5.8 5.9 5.9 6.1 6.2 6.2 6.3 6.3 6.4 6.4 6.3 6.3 6.2 6.2 6.2 5.9 6.0 6.0 6.2 6.4
5.6 6.1 6.1 6.1 6.1 6.0 6.0 6.0 6.0 6.1 6.0 6.0 6.1 5.7 6.0 6.1 6.0 6.1 5.2 5.2 6.0 6.4 6.2 5.6 5.8 6.1 6.2 6.3 6.3 6.3 6.3 6.4 6.4 6.4 6.4 5.8 5.8 5.9 5.7 6.0 6.1 6.0 5.8
6.2 6.2 6.2 6.2 6.3 6.3 6.3 6.2 6.2 6.1 6.1 6.1 5.2 5.5 5.6 6.2 6.1 6.2 5.3 5.8 6.1 6.0 5.2 5.3 6.0 6.2 6.2 6.2 6.1 6.1 6.2 6.4 6.5 6.5 6.4 6.3 6.2 6.2 5.9 5.9 6.3 6.3 5.7
6.5 6.5 6.5 6.4 6.4 6.4 6.4 6.4 6.3 6.2 6.2 6.1 5.2 5.2 6.2 6.2 6.3 6.3 6.1 6.2 6.2 6.2 6.2 6.1 6.2 6.2 6.1 6.1 6.0 6.1 6.1 6.2 6.1 6.1 6.2 6.2 6.1 5.9 5.9 6.1 6.0 6.2 6.0
6.5 6.5 6.4 6.5 6.6 6.5 6.5 6.4 6.3 6.2 6.2 6.1 5.7 6.2 6.4 6.5 6.5 6.5 6.5 6.4 6.4 6.5 6.2 6.2 6.1 6.1 6.1 6.2 6.3 6.3 6.2 5.5 5.7 6.1 6.1 5.9 6.1 5.9 5.9 5.9 6.1 6.1 6.0
6.6 6.5 6.4 6.4 6.5 6.4 6.4 6.3 6.3 6.3 5.9 5.2 5.6 6.6 6.6 6.6 6.6 6.6 6.6 6.6 6.5 6.4 6.4 6.5 6.3 6.1 6.0 5.9 6.1 6.0 6.0 5.8 5.3 5.9 6.1 6.2 5.9 5.9 5.9 5.7 5.7 5.9 6.0
6.6 6.5 6.4 6.4 6.4 6.3 6.3 6.3 6.4 6.6 6.6 6.7 6.7 6.6 6.6 6.6 6.8 6.8 6.6 6.5 6.5 6.4 5.7 6.1 6.0 6.0 6.0 5.9 6.0 6.0 6.0 6.0 6.1 5.8 6.0 5.7 6.0 6.0 6.1 5.9 5.8 5.6 5.4
6.8 6.6 6.5 6.5 6.6 6.6 6.6 6.8 6.8 6.8 6.8 6.8 6.7 6.7 6.7 6.9 6.7 6.7 6.7 7.0 6.9 6.6 6.7 6.4 6.3 6.2 5.8 5.9 5.6 5.4 5.6 6.0 6.0 6.1 6.4 6.0 6.0 5.3 5.3 5.7 5.7 5.7 5.5
7.2 7.1 7.0 7.0 7.0 7.1 7.1 7.1 7.0 7.0 7.0 7.0 7.0 7.1 7.3 7.1 7.0 6.9 7.5 7.3 7.2 7.0 6.6 6.6 6.5 6.2 5.9 5.7 5.6 5.3 5.3 5.4 5.2 5.2 5.8 6.4 6.3 6.0 5.8 5.4 5.2 5.5 5.5
7.4 7.4 7.3 7.3 7.3 7.2 7.2 7.2 7.2 7.2 7.1 7.2 7.3 7.3 7.1 7.1 7.3 7.0 6.9 6.7 6.5 6.3 6.6 6.4 6.0 5.9 6.0 5.7 5.7 5.5 5.2 5.2 5.3 5.2 5.2 5.2 5.6 6.6 6.1 5.4 4.6 5.0 5.6
Wind_Speed
1 5 8 14 16 15 17 16 16 16 16 16 14 14 14 13 13 13 15 16 14 14 14 14 12 15 15 13 14 12 12 11 11 11 11 12 10 8 6 4 3 15 11
5 6 12 16 16 16 15 14 16 15 14 14 14 13 11 11 11 13 14 15 13 13 12 13 15 14 12 13 12 12 9 9 8 8 10 13 12 7 6 8 16 13 11
7 14 17 14 16 15 14 14 15 14 11 14 11 11 11 10 11 13 13 14 13 14 12 14 13 12 12 12 11 10 9 6 2 6 12 14 15 8 5 8 10 9 9
14 18 18 13 14 15 14 13 13 12 11 11 11 12 12 12 13 12 12 12 14 12 13 12 13 12 11 9 10 8 7 2 5 9 9 2 16 11 7 6 7 7 7
14 19 17 14 13 14 13 12 12 11 11 11 12 13 12 12 11 12 11 11 11 11 12 11 10 10 9 6 6 4 1 5 10 12 12 7 9 10 7 3 8 7 6
12 22 16 14 11 13 13 12 12 11 10 12 12 12 12 12 11 10 11 10 10 10 10 9 8 6 5 5 4 3 4 8 11 15 4 9 10 10 6 3 4 6 4
17 20 17 12 13 11 13 12 12 10 11 13 12 11 11 9 10 10 11 9 9 8 8 6 5 3 3 3 4 5 8 15 16 1 5 3 14 11 6 4 6 4 3
17 20 16 11 12 12 10 12 11 10 11 12 11 10 10 9 8 9 9 7 7 6 5 3 1 1 2 4 5 6 9 14 18 6 1 12 19 12 7 6 5 5 4
17 18 16 15 13 12 10 9 10 10 11 11 10 9 9 9 7 7 6 5 4 3 1 1 2 3 5 5 6 7 9 15 17 12 6 18 16 12 7 6 7 7 7
5 15 16 15 15 15 13 9 9 9 9 9 8 8 10 13 12 10 9 6 2 1 3 4 5 6 8 9 10 9 10 16 18 13 3 13 17 12 8 8 8 9 9
10 11 11 13 10 14 12 11 10 9 9 10 10 10 12 14 15 13 10 4 1 4 7 8 7 9 12 14 16 14 12 14 14 5 13 19 15 10 8 10 11 11 11
15 12 14 11 11 10 15 10 10 11 12 9 3 3 3 6 5 4 3 6 7 10 11 12 13 13 12 11 6 16 11 13 10 10 12 12 12 9 8 10 13 14 14
14 13 12 10 11 10 11 11 9 8 9 8 3 4 7 5 7 6 5 7 8 14 9 8 15 13 6 10 3 10 10 10 12 9 6 6 7 7 8 11 14 15 16
13 13 13 10 9 9 9 8 7 5 4 5 8 2 2 6 3 6 7 7 8 6 2 4 8 9 10 10 14 10 12 6 12 12 11 15 8 8 8 11 13 15 17
13 12 12 11 9 7 5 7 2 3 5 2 3 5 3 4 2 3 4 9 5 5 1 3 7 9 8 10 5 8 10 13 14 15 13 13 13 10 11 11 12 13 15
15 13 13 12 10 10 7 3 4 5 2 4 5 4 2 6 7 8 5 9 3 4 12 8 4 5 6 7 6 8 10 13 10 8 11 11 13 14 15 14 14 13 14
14 13 14 12 13 10 8 7 8 7 8 7 6 3 4 5 4 7 7 5 4 6 6 7 7 5 7 7 7 7 8 8 11 13 14 11 12 20 21 16 16 15 14
13 13 13 13 14 12 9 8 9 8 8 8 7 7 9 6 4 7 6 3 12 9 4 5 5 8 8 8 7 8 8 9 10 11 14 11 13 16 12 18 16 14 15
13 14 13 12 12 13 11 10 10 9 8 10 9 3 9 3 5 6 7 6 5 7 4 5 9 8 8 9 8 9 7 7 8 8 8 9 11 12 11 8 18 15 18
14 14 14 12 11 11 9 8 8 8 8 11 9 7 6 7 7 4 8 0 5 5 4 7 6 7 8 7 9 9 7 5 5 5 6 9 10 8 12 10 10 13 18
15 15 14 14 12 10 9 9 9 8 8 8 9 7 5 8 8 5 8 4 4 5 3 5 6 8 7 7 7 9 9 5 2 6 7 7 8 6 12 12 11 11 11
17 16 15 14 13 12 10 8 8 8 8 8 8 9 12 12 9 8 7 6 4 5 5 3 4 6 7 6 5 9 7 8 8 11 4 7 5 8 9 12 15 13 14
18 18 16 15 15 13 13 9 8 7 6 7 7 7 8 12 12 10 8 7 6 5 6 5 4 5 7 7 1 3 5 6 11 6 9 5 9 9 9 11 12 12 11
20 19 17 17 15 14 14 11 12 10 10 10 9 9 8 11 11 11 10 8 5 5 3 4 2 4 4 7 7 4 2 7 9 10 9 10 8 8 9 9 10 13 10
20 19 19 17 16 15 15 15 11 12 10 9 9 7 6 6 11 11 11 9 8 7 6 3 1 3 6 5 7 6 7 8 7 9 12 12 11 11 11 10 10 10 15
20 20 20 19 17 18 16 18 15 13 13 10 10 8 8 10 9 9 9 7 5 4 4 4 3 4 4 4 5 7 8 8 9 10 11 12 13 12 11 11 10 9 13
Wind_Direction
238 51 120 116 108 110 105 105 100 98 100 103 104 105 102 98 94 93 91 89 86 90 101 104 104 100 99 90 89 89 99 99 102 111 117 106 100 101 84 69 199 98 107
146 106 124 113 112 111 108 110 105 99 93 95 104 106 108 107 104 97 98 93 93 95 89 102 94 90 97 98 95 95 86 102 119 143 143 128 108 92 83 61 50 96 110
156 144 118 114 116 112 107 99 100 100 92 96 99 104 102 99 94 90 91 93 101 98 91 93 102 98 98 100 92 87 84 86 202 209 191 167 107 109 96 71 80 106 114
170 137 122 114 113 111 111 109 105 100 95 92 94 92 88 91 95 97 92 91 85 94 95 91 96 100 100 100 103 92 93 103 259 261 260 113 103 111 109 95 105 107 117
133 121 113 113 115 118 119 116 106 107 104 101 97 98 92 88 90 91 92 96 93 94 92 92 96 97 101 99 90 81 93 242 262 274 106 39 90 107 110 124 154 132 67
155 108 119 119 121 119 115 110 118 113 112 103 93 91 93 96 95 96 99 97 98 89 92 95 87 84 84 80 50 29 329 289 278 255 88 128 77 115 126 147 99 94 102
122 120 119 120 113 110 109 110 103 108 104 99 94 96 100 98 83 93 87 87 89 91 98 96 83 73 43 16 355 347 324 307 292 239 120 85 111 132 150 170 143 125 134
120 124 128 118 113 112 113 106 111 106 102 105 100 105 108 101 95 91 93 94 90 88 88 83 60 346 340 323 328 328 319 308 301 250 63 100 132 142 164 183 189 188 182
155 129 138 132 124 119 120 113 109 101 103 107 109 112 115 119 122 116 111 97 85 77 60 282 276 291 290 292 294 297 298 294 296 314 289 105 135 144 173 197 207 208 202
137 143 147 139 147 148 145 126 121 114 121 120 126 154 164 160 159 150 148 105 69 309 279 273 273 269 266 263 258 259 266 275 263 251 154 119 140 141 186 212 226 222 218
165 164 144 150 171 139 137 137 144 140 154 153 168 197 203 209 176 140 99 125 210 253 246 235 237 246 253 250 241 237 243 262 309 298 115 136 130 146 197 223 231 228 228
147 175 170 159 151 172 152 160 155 161 178 171 114 2 100 43 43 5 115 180 216 229 233 243 241 239 266 298 225 230 251 302 332 353 82 122 132 156 203 232 237 234 230
163 168 146 169 160 197 132 182 177 182 135 135 123 334 63 338 53 228 79 221 202 217 78 274 220 237 223 330 281 313 314 309 297 280 339 143 163 169 214 238 244 240 235
176 164 161 165 170 212 162 195 170 181 170 206 119 161 157 266 62 27 328 226 250 150 163 9 11 339 320 298 311 316 325 303 309 314 244 207 183 200 219 242 249 249 240
179 173 172 167 175 199 229 199 230 240 189 191 183 156 277 315 336 304 266 309 273 351 156 337 24 351 332 300 288 313 311 301 301 292 309 173 204 206 219 232 255 258 247
177 181 176 177 178 195 212 263 211 224 208 243 268 219 192 283 21 339 312 276 327 9 10 336 341 300 303 333 325 328 319 302 289 273 310 316 217 220 218 219 233 251 257
172 189 185 187 185 193 208 202 225 240 216 255 255 210 234 260 338 296 260 286 352 17 258 262 306 336 331 343 318 327 299 315 309 321 313 285 234 224 219 217 227 233 247
182 194 194 189 186 193 200 208 237 232 253 252 231 221 184 231 225 268 254 329 34 280 337 333 341 352 336 325 343 331 327 325 322 302 272 295 330 316 217 220 224 239 245
194 185 201 201 199 193 202 213 220 239 239 255 235 227 174 221 248 261 293 42 351 300 329 345 6 333 339 326 333 333 325 318 312 323 331 307 284 262 307 255 216 227 238
187 190 196 201 204 199 204 213 232 229 227 237 242 237 141 212 226 255 301 208 290 313 347 11 331 329 315 334 337 317 321 302 308 304 318 293 303 334 298 317 303 277 228
190 192 194 198 191 201 200 208 210 222 215 230 236 219 239 227 249 247 266 259 240 269 24 296 333 329 327 4 328 335 307 252 353 300 333 346 308 309 336 296 281 308 313
193 195 195 199 197 202 205 216 217 217 226 220 226 210 207 231 241 250 254 265 278 296 296 354 351 315 319 9 328 311 331 316 18 327 323 316 348 324 303 314 326 307 299
197 196 196 199 196 201 220 202 210 246 249 251 238 247 225 229 238 237 251 263 306 277 300 15 337 320 328 316 49 295 330 335 330 331 303 328 340 310 305 302 302 281 299
200 195 197 196 201 199 205 210 210 212 222 221 230 229 220 207 221 221 220 237 244 309 6 280 2 325 281 315 323 326 318 289 304 309 311 306 299 300 302 295 304 289 291
202 200 197 195 198 206 198 222 204 222 224 233 233 215 198 216 216 221 217 223 214 210 164 165 259 312 305 307 330 322 305 289 301 308 310 315 317 317 318 306 314 298 280
205 204 201 193 199 202 200 205 225 213 224 228 217 220 219 214 200 227 225 216 194 218 192 185 197 245 264 313 303 298 307 321 314 316 310 310 309 312 317 306 296 307 302